Location: Unspecified
(48.0111°N, 0.0000°E)
Time: 08:13:26
(UTC+00:00)

Vanguard 3 - Visible Passes

Search period start: 04 April 2026 00:00
Search period end: 14 April 2026 00:00
Orbit: 508 x 3205 km, 33.3° (Epoch: 28 March)

Date Brightness Start Highest point End Pass type
(mag) Time Alt. Az. Time Alt. Az. Time Alt. Az.
4 Apr 9.6 02:23:14 12° SE 02:23:14 12° SE 02:25:09 10° SE visible
4 Apr 9.2 04:27:07 11° SW 04:32:16 28° SSE 04:40:37 10° ESE visible
5 Apr 9.0 03:09:57 19° S 03:11:03 19° SSE 03:16:24 10° ESE visible
6 Apr 8.8 03:56:42 16° SSW 03:59:51 24° SSE 04:06:36 10° ESE visible
7 Apr 9.1 02:39:32 16° SSE 02:39:32 16° SSE 02:42:42 10° ESE visible
7 Apr 9.1 04:43:53 10° SW 04:48:53 25° S 04:56:19 10° SE visible
8 Apr 8.7 03:26:17 19° S 03:27:32 20° S 03:32:48 10° SE visible
9 Apr 9.5 02:09:11 10° SE 02:09:11 10° SE 02:09:11 10° SE visible
9 Apr 8.9 04:13:04 13° SW 04:16:31 21° S 04:22:20 10° SE visible
10 Apr 8.9 02:55:58 17° SSE 02:55:58 17° SSE 02:59:13 10° SE visible
11 Apr 8.7 03:42:48 16° SSW 03:44:14 17° S 03:48:31 10° SE visible
12 Apr 9.4 02:25:46 10° SE 02:25:46 10° SE 02:25:49 10° SE visible
12 Apr 9.0 04:30:22 10° SW 04:33:18 14° S 04:36:56 10° SSE visible
13 Apr 8.9 03:12:41 14° S 03:12:41 14° S 03:14:51 10° SSE visible
